Location: Newark
(33.9035°S, 18.4112°E)
Time: 20:03:10
(UTC+00:00)

STARLINK-1108 - Pass Details

Date: 22 January 2020
Orbit: 348 x 351 km, 53.0° (Epoch: 18 February)

Event Time Altitude Azimuth Distance (km) Brightness Sun altitude
Rises 10:54:31 0° 235° (SW) 2,183 6.6 76.0°
Reaches altitude 10° 10:56:41 10° 246° (WSW) 1,331 5.7 76.1°
Drops below altitude 10° 11:01:57 10° 13° (NNE) 1,314 5.9 76.0°
Enters shadow 11:29:37 -56° 43° (NE) 11,012 9.7 74.3°
Exits shadow 12:05:55 -52° 209° (SSW) 10,484 9.6 69.4°
